TimeMST,TemperatureF,Dew PointF,Humidity,Sea Level PressureIn,VisibilityMPH,Wind Direction,Wind SpeedMPH,Gust SpeedMPH,PrecipitationIn,Events,Conditions,WindDirDegrees,DateUTC
12:15 AM,28.4,28.4,100,30.21,10.0,North,8.1,-,N/A,,Overcast,360,2013-11-14 07:15:00
12:35 AM,28.4,28.4,100,30.21,10.0,NNE,5.8,-,N/A,,Overcast,20,2013-11-14 07:35:00
1:15 AM,28.4,28.4,100,30.21,10.0,North,9.2,-,N/A,,Overcast,350,2013-11-14 08:15:00
1:35 AM,28.4,26.6,93,30.20,10.0,North,6.9,-,N/A,,Mostly Cloudy,10,2013-11-14 08:35:00
1:55 AM,26.6,26.6,100,30.20,10.0,North,3.5,-,N/A,,Mostly Cloudy,10,2013-11-14 08:55:00
2:15 AM,26.6,26.6,100,30.21,10.0,North,4.6,-,N/A,,Partly Cloudy,350,2013-11-14 09:15:00
2:35 AM,26.6,24.8,93,30.21,10.0,ENE,6.9,-,N/A,,Mostly Cloudy,60,2013-11-14 09:35:00
2:55 AM,26.6,24.8,93,30.22,10.0,NNW,3.5,-,N/A,,Overcast,330,2013-11-14 09:55:00
3:15 AM,26.6,26.6,100,30.21,10.0,North,5.8,-,N/A,,Overcast,350,2013-11-14 10:15:00
3:55 AM,24.8,24.8,100,30.19,10.0,North,6.9,-,N/A,,Mostly Cloudy,350,2013-11-14 10:55:00
4:15 AM,24.8,24.8,100,30.18,10.0,North,8.1,-,N/A,,Mostly Cloudy,360,2013-11-14 11:15:00
4:35 AM,24.8,24.8,100,30.18,10.0,NNE,4.6,-,N/A,,Mostly Cloudy,20,2013-11-14 11:35:00
4:55 AM,24.8,24.8,100,30.18,10.0,Calm,Calm,-,N/A,,Partly Cloudy,0,2013-11-14 11:55:00
5:15 AM,24.8,24.8,100,30.18,10.0,North,8.1,-,N/A,,Partly Cloudy,360,2013-11-14 12:15:00
5:35 AM,24.8,24.8,100,30.17,1.0,NNE,6.9,-,N/A,,Overcast,20,2013-11-14 12:35:00
5:55 AM,24.8,23.0,93,30.17,10.0,ENE,5.8,-,N/A,,Scattered Clouds,60,2013-11-14 12:55:00
6:15 AM,24.8,24.8,100,30.16,10.0,NNE,3.5,-,N/A,,Clear,20,2013-11-14 13:15:00
6:35 AM,24.8,24.8,100,30.16,10.0,NNE,3.5,-,N/A,,Partly Cloudy,30,2013-11-14 13:35:00
6:55 AM,24.8,24.8,100,30.15,10.0,North,5.8,-,N/A,,Clear,350,2013-11-14 13:55:00
7:51 AM,23.0,21.2,93,30.14,10.0,Calm,Calm,-,N/A,,Clear,0,2013-11-14 14:51:00
8:51 AM,30.2,28.4,93,30.14,10.0,Calm,Calm,-,N/A,,Clear,0,2013-11-14 15:51:00
9:52 AM,33.8,30.2,87,30.11,10.0,Calm,Calm,-,N/A,,Clear,0,2013-11-14 16:52:00
10:51 AM,35.6,33.8,93,30.08,10.0,West,4.6,-,N/A,,Partly Cloudy,260,2013-11-14 17:51:00
11:56 AM,41.0,30.2,65,30.03,10.0,South,11.5,17.3,N/A,,Partly Cloudy,180,2013-11-14 18:56:00
12:55 PM,41.0,28.4,61,29.99,10.0,South,13.8,-,N/A,,Scattered Clouds,170,2013-11-14 19:55:00
1:51 PM,42.8,26.6,53,29.96,10.0,South,13.8,-,N/A,,Scattered Clouds,170,2013-11-14 20:51:00
2:51 PM,41.0,24.8,53,29.92,10.0,South,15.0,-,N/A,,Clear,180,2013-11-14 21:51:00
3:54 PM,39.2,24.8,56,29.90,10.0,SSW,10.4,-,N/A,,Clear,200,2013-11-14 22:54:00
4:52 PM,37.4,24.8,60,29.88,10.0,South,8.1,-,N/A,,Clear,180,2013-11-14 23:52:00
5:51 PM,33.8,24.8,70,29.85,10.0,SSW,5.8,-,N/A,,Partly Cloudy,210,2013-11-15 00:51:00
6:51 PM,33.8,24.8,70,29.84,10.0,SW,6.9,-,N/A,,Clear,220,2013-11-15 01:51:00
7:51 PM,33.8,26.6,75,29.81,10.0,South,8.1,-,N/A,,Clear,170,2013-11-15 02:51:00
8:55 PM,33.8,24.8,70,29.80,10.0,WSW,5.8,-,N/A,,Overcast,240,2013-11-15 03:55:00
9:15 PM,33.8,24.8,70,29.79,10.0,Calm,Calm,-,N/A,,Overcast,0,2013-11-15 04:15:00
9:35 PM,33.8,24.8,70,29.79,-9999.0,WSW,3.5,-,N/A,,Overcast,250,2013-11-15 04:35:00
9:55 PM,33.8,24.8,70,29.78,-9999.0,SW,3.5,-,N/A,,Overcast,230,2013-11-15 04:55:00
10:15 PM,33.8,23.0,65,29.78,-9999.0,Calm,Calm,-,N/A,,Mostly Cloudy,0,2013-11-15 05:15:00
10:35 PM,30.2,26.6,86,29.77,10.0,Calm,Calm,-,N/A,,Scattered Clouds,0,2013-11-15 05:35:00
10:55 PM,30.2,24.8,80,29.77,10.0,Calm,Calm,-,N/A,,Clear,0,2013-11-15 05:55:00
11:15 PM,33.8,23.0,65,29.77,10.0,Calm,Calm,-,N/A,,Clear,0,2013-11-15 06:15:00
11:35 PM,32.0,24.8,75,29.76,-9999.0,Calm,Calm,-,N/A,,Clear,0,2013-11-15 06:35:00
11:55 PM,26.6,23.0,86,29.76,-9999.0,NNW,3.5,-,N/A,,Unknown,330,2013-11-15 06:55:00